Location: Fairmont
(43.6520°N, 94.4610°W)
Time: 00:54:42
(UTC-05:00)

Daily predictions for brighter satellites

Satellite Brightness Start Highest point End
(mag) Time Altitude Azimuth Time Altitude Azimuth Time Altitude Azimuth
IKONOS-2 4.3 00:06:00 80° SSE 00:06:14 88° ENE 00:10:32 10° NNW
Meteor 2-5 Rocket 3.8 00:05:33 50° SSE 00:06:55 65° E 00:12:39 10° NNE
Cosmos 1733 3.6 00:03:12 10° N 00:06:45 55° ENE 00:06:45 55° ENE
Cosmos 1140 Rocket 3.7 00:08:54 38° SW 00:10:52 66° WNW 00:16:07 10° NNE
COSMOS 2487 3.2 00:21:24 50° NNE 00:21:24 50° NNE 00:24:10 10° NNE
Cosmos 2369 Rocket 4.4 00:20:45 10° WNW 00:23:10 13° W 00:25:15 11° WSW
ALOS 2 3.0 00:23:39 50° E 00:23:53 51° ENE 00:28:09 10° N
ISS -0.8 00:24:41 10° WNW 00:27:22 23° NNW 00:30:03 10° NE
Cosmos 1470 3.3 00:25:47 10° NNW 00:29:15 51° WNW 00:29:15 51° WNW
Cosmos 1417 Rocket 4.5 00:23:40 10° N 00:29:48 70° E 00:31:19 51° SE
Cosmos 1408 Rocket 4.0 00:30:21 51° E 00:30:21 51° E 00:34:31 10° NNE
ATLAS 3B R/B 4.2 00:23:33 10° WSW 00:30:40 40° NW 00:37:35 10° NNE
Cosmos 1553 Rocket 4.3 00:28:53 10° N 00:35:09 59° E 00:36:55 44° SE
NOSS 3-2 (A) 3.5 00:34:41 53° SSE 00:35:39 59° ESE 00:42:10 10° NE
SL-8 R/B 3.5 00:32:47 10° WNW 00:37:39 82° SSW 00:37:39 82° SSW
Cosmos 1818 4.1 00:32:46 10° NNW 00:38:08 52° NE 00:39:56 37° ESE
Cosmos 614 Rocket 4.4 00:38:28 42° WSW 00:39:55 58° WNW 00:45:05 10° NNE
Atlas Centaur 2 4.3 00:34:21 10° WSW 00:38:00 22° SW 00:38:00 22° SW
Cosmos 1340 3.6 00:43:01 43° WNW 00:43:01 43° WNW 00:46:26 10° N
Meteor 1-16 Rocket 4.2 00:37:32 10° NNW 00:43:10 81° W 00:44:13 61° S
Cosmos 405 Rocket 3.7 00:48:48 40° NE 00:48:48 40° NE 00:51:36 10° NNE
Helios 1A Rocket 3.6 00:46:01 10° NNE 00:49:20 45° ENE 00:49:20 45° ENE
CZ-4B R/B 2.3 00:51:14 54° NNW 00:51:14 54° NNW 00:54:10 10° NNW
Cosmos 1763 Rocket 4.4 00:48:10 10° N 00:53:13 42° ENE 00:54:39 35° E
Cosmos 1980 Rocket 4.5 00:49:49 10° N 00:53:39 18° NE 00:57:28 10° E
Cosmos 2278 3.8 00:48:12 10° NNW 00:53:51 68° ENE 00:55:09 51° ESE
COSMOS 2406 4.4 00:51:29 20° WSW 00:54:54 38° WNW 01:00:15 10° NNE
Cosmos 1743 Rocket 4.2 00:57:16 46° E 00:57:16 46° E 01:01:15 10° NNE
S3M 3.9 00:55:41 10° N 01:01:58 87° W 01:03:20 57° S
Cosmos 2266 Rocket 4.4 01:02:30 43° SE 01:03:59 51° E 01:10:11 10° NNE
Lacrosse 5 3.5 01:04:34 10° NW 01:09:08 32° NNE 01:13:41 10° E
Cosmos 1655 Rocket 4.3 01:07:26 42° SW 01:09:20 57° WNW 01:15:30 10° N
Cosmos 1707 4.3 01:10:40 27° WNW 01:10:40 27° WNW 01:14:05 10° NNW
Cosmos 1766 Rocket 3.8 01:11:33 63° W 01:11:33 63° W 01:16:02 10° N
Timation 2 Rocket 4.2 01:10:11 52° S 01:11:51 71° ESE 01:18:38 10° NNE
CZ-4C R/B 2.1 01:12:00 60° SW 01:13:05 86° NW 01:19:09 10° NE
Cosmos 1867 3.7 01:13:53 56° ESE 01:13:58 56° ESE 01:19:19 10° NE
Cosmos 1500 Rocket 4.1 01:14:59 47° ENE 01:14:59 47° ENE 01:18:50 10° NNE
Cosmos 1697 Rocket 3.9 01:09:30 10° N 01:14:45 37° NE 01:17:38 23° ESE
Cosmos 2082 Rocket 2.7 01:14:28 41° ESE 01:14:47 42° ESE 01:20:05 10° NE
Cosmos 1428 Rocket 4.4 01:14:42 54° SSW 01:16:09 76° W 01:22:23 10° N
H-2A R/B 3.3 01:12:38 10° N 01:16:03 39° WNW 01:16:03 39° WNW
Landsat 5 4.2 01:17:29 43° WNW 01:17:29 43° WNW 01:20:41 10° NNW
Cosmos 1354 Rocket 4.4 01:20:09 49° ESE 01:20:25 49° ESE 01:25:32 10° NNE
Cosmos 1328 Rocket 3.5 01:16:19 10° N 01:20:30 81° N 01:20:30 81° N
Cosmos 2221 4.0 01:18:19 10° NNW 01:21:43 27° W 01:21:43 27° W
Cosmos 1076 Rocket 4.3 01:22:58 41° WNW 01:22:58 41° WNW 01:26:59 10° N
Cosmos 1833 Rocket 3.4 01:23:37 38° ESE 01:23:59 38° ESE 01:29:10 10° NE
Cosmos 1503 Rocket 4.3 01:26:33 53° ESE 01:26:55 54° ESE 01:32:06 10° NNE
Meteor 2-20 4.4 01:27:16 57° S 01:28:36 81° E 01:34:48 10° N
BREEZE-M DEB (TANK) 4.2 01:15:26 10° W 01:29:55 59° NNW 01:33:48 10° ENE
BREEZE-M TANK 3.8 01:15:54 10° SW 01:31:11 52° SSE 01:35:02 10° E
CZ-2C R/B 3.7 01:30:16 40° ESE 01:31:54 54° ENE 01:37:28 10° N
Cosmos 841 Rocket 3.4 01:27:28 10° NNW 01:32:46 81° ENE 01:33:31 66° SE
Cosmos 1515 Rocket 3.5 01:28:34 10° N 01:32:54 84° NNW 01:32:54 84° NNW
Cosmos 2228 Rocket 3.7 01:31:51 10° NNW 01:35:46 46° WNW 01:35:46 46° WNW
CENTAUR R/B 3.3 01:37:39 32° SE 01:38:24 33° ESE 01:44:17 10° NE
Cosmos 1674 3.6 01:41:22 41° ENE 01:41:22 41° ENE 01:44:19 10° NNE
NOSS 3-2 (C) 3.7 01:39:23 37° WSW 01:41:54 66° NW 01:48:38 10° NNE
Cosmos 1656 3.7 01:41:04 10° NNW 01:46:49 81° ENE 01:48:15 52° SE
Aureole 1 Rocket 4.1 01:43:32 10° N 01:47:58 51° ENE 01:49:58 34° ESE
PSLV R/B 3.9 01:52:42 81° NE 01:52:42 81° NE 01:56:48 10° NNW
SL-16 R/B 4.5 01:51:12 10° N 01:55:27 21° NE 01:59:41 10° E
CZ-2C R/B 2.7 01:50:59 10° N 01:56:33 75° WNW 01:57:38 57° SW
Cosmos 1328 4.4 01:59:04 48° E 01:59:04 48° E 02:02:42 10° NNE
ASTEX 1 3.6 01:58:01 10° NNE 02:02:57 59° E 02:03:43 52° SE
ISS -0.6 02:01:59 10° NW 02:04:35 21° N 02:07:11 10° ENE
Cosmos 1805 Rocket 4.1 02:05:21 45° ESE 02:05:41 46° E 02:09:57 10° NNE
Cosmos 2322 Rocket 4.1 02:03:20 10° N 02:08:03 26° NE 02:12:44 10° ESE
Cosmos 836 Rocket 4.4 02:04:25 10° NNW 02:09:35 64° WSW 02:10:03 61° SW
Cosmos 405 3.5 02:07:23 10° N 02:10:29 58° NNE 02:10:29 58° NNE
Cosmos 1633 Rocket 4.1 02:13:20 32° ESE 02:14:04 34° E 02:18:05 10° NNE
Genesis I 4.4 02:11:12 10° NW 02:13:43 34° WNW 02:13:43 34° WNW
Cosmos 724 4.3 02:15:39 48° SW 02:17:18 77° NW 02:23:12 10° NNE
Cosmos 1707 Rocket 3.7 02:14:17 10° N 02:18:38 63° E 02:19:12 56° ESE
Cosmos 332 Rocket 4.3 02:14:05 10° NNW 02:18:49 54° ENE 02:20:35 34° SE
Cosmos 1666 Rocket 3.9 02:22:15 48° ESE 02:22:44 51° E 02:26:56 10° NNE
Cosmos 2058 2.8 02:27:08 76° SE 02:27:20 79° E 02:31:32 10° N
Lacrosse 5 rocket 3.1 02:25:20 10° NW 02:29:19 35° NNE 02:33:27 10° E
Cosmos 1151 Rocket 3.9 02:26:33 10° NNW 02:30:09 35° W 02:30:09 35° W
Meteor 1-11 4.4 02:28:51 42° SSE 02:30:46 66° E 02:36:32 10° NNE
Cosmos 2344 3.9 02:27:26 29° WSW 02:31:51 68° NW 02:40:56 10° NE
Cosmos 2151 3.3 02:34:33 49° W 02:34:45 50° WNW 02:38:55 10° N
Cosmos 1980 Rocket 2.1 02:32:43 10° NNW 02:38:23 84° WSW 02:40:33 39° SSE
Cosmos 540 Rocket 3.4 02:33:52 10° NNW 02:39:03 71° WSW 02:40:10 53° S
ERS-2 2.9 02:39:05 10° NNE 02:42:39 42° E 02:42:57 42° ESE
Cosmos 1300 2.6 02:41:02 10° NNW 02:44:50 74° W 02:44:50 74° W
Cosmos 1437 Rocket 4.1 02:41:38 10° NNW 02:44:24 27° WNW 02:44:24 27° WNW
NPP 4.2 02:43:34 10° NNE 02:48:50 51° E 02:51:03 32° SSE
USA 215 3.4 02:44:13 10° NE 02:50:41 59° SE 02:53:18 36° SSW
Cosmos 1745 Rocket 4.0 02:48:46 38° S 02:51:26 90° E 02:57:49 10° N
Lacrosse 5 1.8 02:47:24 10° NW 02:52:24 64° SW 02:54:02 41° SSE
Sich 1 3.0 02:53:31 59° SSW 02:54:20 82° W 02:58:48 10° N
USA 161 4.1 02:54:45 12° E 02:55:21 12° ENE 02:56:28 10° NE
Meteor 1-4 Rocket 3.8 02:53:29 10° N 02:57:04 40° ENE 02:58:39 26° SE
Nadezhda 1 Rocket 3.9 02:51:00 10° N 02:57:13 88° W 03:00:14 32° S
Cosmos 1697 Rocket 3.3 02:53:34 10° NW 02:58:41 35° WSW 02:59:19 34° WSW
Cosmos 2082 Rocket 3.4 02:56:17 22° W 02:58:58 32° NW 03:04:02 10° N
Meteor 2-10 4.3 02:55:58 10° N 03:01:10 65° ENE 03:04:30 23° SSE
Cosmos 1437 3.3 03:02:21 47° WNW 03:02:21 47° WNW 03:05:23 10° N
CZ-4C R/B 4.3 02:58:10 10° W 03:02:35 22° NNW 03:07:26 10° NNE
Cosmos 1833 Rocket 3.8 03:05:18 23° WSW 03:07:57 34° NW 03:13:05 10° N
Abrixas 3.8 03:08:48 31° NW 03:09:39 39° NNW 03:12:35 10° ENE
Cosmos 371 Rocket 3.2 03:05:31 10° NNW 03:10:22 75° WSW 03:12:20 36° S
Cosmos 1862 Rocket 3.9 03:07:19 10° N 03:11:47 62° E 03:14:12 26° SSE
Cosmos 1455 2.9 03:08:29 10° N 03:12:11 50° ENE 03:13:56 27° SE
PSLV R/B 4.1 03:08:12 10° N 03:12:39 49° WNW 03:13:54 37° WSW
Cosmos 1726 2.6 03:10:53 10° NNW 03:14:20 41° W 03:14:20 41° W
ATLAS 5 CENTAUR R/B 3.4 03:13:59 19° SSE 03:16:08 26° ESE 03:20:22 10° ENE
H-2A R/B 3.3 03:14:58 29° S 03:16:25 32° SSE 03:31:05 10° ESE
IRS-1C 4.3 03:14:06 10° NNE 03:19:25 65° ESE 03:22:20 27° S
Cosmos 968 Rocket 3.4 03:19:20 37° SSW 03:21:22 76° WNW 03:26:33 10° NNE
Cosmos 2360 4.4 03:18:07 10° NW 03:23:38 52° WSW 03:26:18 29° S
CENTAUR R/B 3.1 03:24:49 23° WSW 03:28:43 52° NW 03:35:35 10° NNE
IRS-P3 4.4 03:28:26 10° N 03:33:39 56° WNW 03:36:15 29° SW
Resurs 1-4 Rocket 3.5 03:29:20 10° NNE 03:34:06 32° E 03:38:51 10° SSE
AQUA 3.8 03:29:54 10° N 03:34:40 73° WNW 03:36:55 31° SSW
SL-14 R/B 4.4 03:34:37 25° W 03:35:19 27° WNW 03:38:38 10° NNW
Cosmos 1626 2.1 03:34:40 37° S 03:36:03 84° E 03:39:50 10° N
Cosmos 1869 3.2 03:33:44 10° N 03:37:43 88° ENE 03:39:55 26° S
SL-16 R/B 2.1 03:34:28 10° NNW 03:40:09 71° WSW 03:45:44 10° SSE
ISS -2.7 03:38:16 10° NW 03:41:31 58° NNE 03:44:44 10° ESE
Spot 4 Rocket 4.1 03:37:51 10° NNE 03:43:01 77° ESE 03:46:24 22° S
Cosmos 923 Rocket 3.9 03:39:52 10° NNW 03:45:10 80° WSW 03:50:23 10° SSE
Cosmos 1703 4.2 03:46:29 28° WSW 03:47:40 34° WNW 03:51:18 10° N
OAO 3 Rocket 4.0 03:51:09 26° SSW 03:52:04 28° S 03:56:04 10° ESE
Cosmos 2322 Rocket 2.3 03:46:56 10° NW 03:52:23 52° WSW 03:57:05 14° S
UNK 4.4 03:48:34 10° SSE 03:53:02 57° ENE 03:57:32 10° N
Cosmos 1680 Rocket 3.4 03:49:15 10° NNW 03:54:29 86° WSW 03:59:42 10° SSE
Cosmos 1271 Rocket 3.4 03:52:55 10° NNW 03:56:24 34° W 03:57:29 28° SW
Cosmos 2181 Rocket 4.0 03:50:17 10° NNW 03:56:24 69° W 04:01:52 14° S
ATLAS CENTAUR R/B 3.7 03:52:48 10° NNW 03:57:04 31° NE 04:01:01 10° ESE
Cosmos 1777 Rocket 4.2 03:54:47 24° SW 03:57:54 59° WNW 04:03:09 10° NNE
Cosmos 773 Rocket 4.3 03:57:13 10° NNW 04:02:06 45° WSW 04:05:53 16° S
EO 1 Del DPAF 3.2 03:59:05 13° SSE 04:02:32 85° WSW 04:06:29 10° NNW
Cosmos 1933 3.2 04:02:41 10° N 04:06:45 84° W 04:10:29 12° S
Cosmos 1703 Rocket 3.5 04:02:27 10° N 04:06:51 86° W 04:11:10 10° S
GPS 2-05 Rocket1 4.4 04:06:56 19° S 04:07:07 19° S 04:09:35 10° SE
SL-08 R/B 4.5 04:06:42 21° SW 04:08:33 26° W 04:12:39 10° NW
Lacrosse 5 rocket 1.8 04:04:31 10° WNW 04:08:42 44° SW 04:13:02 10° SSE
ARIANE 5 R/B 2.5 04:06:29 10° NNE 04:11:37 85° WNW 04:15:49 15° SSW
MTI 4.1 04:10:04 10° SSE 04:13:24 73° ENE 04:16:46 10° N
IRS-1D 3.6 04:08:19 10° NNE 04:13:42 89° ESE 04:18:25 13° SSW
Cosmos 2292 Rocket 3.4 04:13:09 25° SW 04:14:34 41° WNW 04:18:00 10° N
ADEOS 4.1 04:10:46 10° N 04:15:45 46° WNW 04:19:28 17° SW
ERS-2 4.3 04:14:00 10° NNW 04:16:06 15° WNW 04:17:48 11° W
MOS 1-B 4.5 04:14:03 10° NNE 04:19:52 77° ESE 04:25:39 10° S
CZ-2D R/B 2.2 04:16:02 10° NNE 04:21:18 82° ESE 04:26:37 10° SSW
Cosmos 1980 Rocket 4.0 04:19:43 10° WNW 04:21:27 11° W 04:22:16 11° WSW
Cosmos 2360 Rocket 2.1 04:17:30 10° NNW 04:23:09 81° WSW 04:28:47 10° SSE
USA 161 3.1 04:26:00 14° W 04:26:00 14° W 04:27:08 10° WNW
Cosmos 1898 Rocket 4.1 04:21:00 10° S 04:26:03 55° ESE 04:31:06 10° NNE
Cosmos 2074 Rocket 4.0 04:22:49 10° S 04:29:03 80° W 04:35:21 10° N
Meteor 1-26 Rocket 4.2 04:23:48 10° N 04:29:23 87° W 04:34:55 10° S
SL-16 R/B 2.6 04:25:17 10° S 04:31:27 61° WSW 04:37:41 10° NNW
CZ-4B R/B 4.3 04:26:41 10° NNE 04:31:52 43° E 04:37:06 10° S
USA 215 3.9 04:27:21 10° NE 04:33:37 50° NNW 04:39:52 10° W
Cosmos 2184 Rocket 4.1 04:27:43 10° SSW 04:34:05 77° W 04:40:28 10° N
Cosmos 1937 Rocket 4.4 04:29:06 10° S 04:34:10 47° ESE 04:39:14 10° NNE
Okean 1-7 3.0 04:29:55 10° NNW 04:34:19 70° W 04:38:39 10° S
Cosmos 2322 3.7 04:32:50 10° NNW 04:38:30 62° WSW 04:44:07 10° S
Cosmos 2219 3.5 04:33:14 10° SSW 04:38:54 70° ESE 04:44:39 10° NNE
Cosmos 2150 Rocket 4.2 04:35:44 10° SSW 04:41:01 79° ESE 04:46:25 10° NNE
FALCON 9 R/B 2.4 04:42:33 11° SSW 04:42:58 11° S 04:43:49 10° SSE
Abrixas 4.2 04:43:20 10° WNW 04:46:12 34° N 04:49:04 10° ENE
Okean O Rocket 1.9 04:41:57 10° NNE 04:46:23 70° ESE 04:50:46 10° S
Cosmos 1455 4.3 04:46:20 10° WNW 04:47:26 11° W 04:48:31 10° W
GP-B 4.5 04:52:23 10° NNE 04:56:37 41° E 05:00:49 10° SSE
Cosmos 2333 Rocket 3.9 04:52:58 10° NNW 04:58:19 40° ENE 05:03:39 10° SE
MOZ.5/SAFIR/RUBIN 5/SL-8 4.1 04:53:43 10° SSE 04:58:22 75° ENE 05:03:07 10° N
ATLAS 5 CENTAUR R/B 2.5 04:55:44 10° WSW 05:00:29 47° NW 05:05:40 10° NNE
PAYLOAD B 4.4 04:57:28 10° NNE 05:03:01 81° ESE 05:08:33 10° SSW
COSMOS 2428 2.7 05:03:17 10° NNW 05:08:56 71° WSW 05:14:34 10° SSE
Cosmos 1892 2.8 05:06:07 10° S 05:10:00 88° E 05:13:54 10° N
